This demonstration page uses our WeatherBlox Daily Observations layout. Learn more.

Left ArrowRight Arrow

39.95238, -75.16362

Hourly Observations for January 14, 2019

Temp ( °F °C ) Dew Point ( °F °C ) Humidity (%) Winds ( mph kmh ) Pressure ( in mb ) Visibility ( mi km ) Precip ( " mm )
12:09 am 00:09 Cloudy 28 -2.2 14 -10 56 56 NNE 16 26 30.24 1024 10 16 0.00 0.00
12:54 am 00:54 Cloudy 28 -2.2 14 -10 56 56 NE 15 24 30.25 1025 10 16 0.00 0.00
1:51 am 01:51 Cloudy 27 -3 12 -11 54 54 NNE 12 19 30.27 1025 10 16 0.00 0.00
1:54 am 01:54 Cloudy 26 -3.3 12 -11.1 55 55 NNE 12 19 30.27 1025 10 16 0.00 0.00
2:54 am 02:54 Cloudy 26 -3.3 12 -11.1 55 55 N 15 24 30.27 1025 10 16 0.00 0.00
3:54 am 03:54 Cloudy 26 -3.3 12 -11.1 55 55 NNE 15 24 30.27 1025 10 16 0.00 0.00
4:54 am 04:54 Cloudy 24 -4.4 11 -11.7 57 57 N 14 22 30.27 1025 10 16 0.00 0.00
5:54 am 05:54 Mostly Cloudy 22 -5.6 10 -12.2 60 60 N 13 20 30.27 1025 10 16 0.00 0.00
6:54 am 06:54 Mostly Cloudy 22 -5.6 10 -12.2 60 60 N 12 19 30.27 1025 10 16 0.00 0.00
7:54 am 07:54 Mostly Cloudy 22 -5.6 11 -11.7 63 63 N 10 17 30.27 1025 10 16 0.00 0.00
8:54 am 08:54 Mostly Cloudy 24 -4.4 13 -10.6 62 62 N 12 19 30.29 1026 10 16 0.00 0.00
9:54 am 09:54 Mostly Cloudy 25 -3.9 14 -10 63 63 N 13 20 30.31 1026 10 16 0.00 0.00
10:54 am 10:54 Partly Cloudy 29 -1.7 17 -8.3 61 61 NE 12 19 30.29 1026 10 16 0.00 0.00
11:54 am 11:54 Partly Cloudy 30 -1.1 18 -7.8 61 61 NE 12 19 30.26 1025 10 16 0.00 0.00
12:54 pm 12:54 Mostly Sunny 32 0 17 -8.3 54 54 N 9 15 30.24 1024 10 16 0.00 0.00
1:54 pm 13:54 Mostly Sunny 33 0.6 15 -9.4 47 47 NNE 6 9 30.22 1023 10 16 0.00 0.00
2:54 pm 14:54 Mostly Sunny 34 1.1 13 -10.6 42 42 NW 6 9 30.20 1023 10 16 0.00 0.00
3:54 pm 15:54 Mostly Sunny 34 1.1 12 -11.1 40 40 WNW 5 7 30.19 1022 10 16 0.00 0.00
4:54 pm 16:54 Sunny 34 1.1 11 -11.7 38 38 NW 7 11 30.19 1022 10 16 0.00 0.00
5:54 pm 17:54 Clear 33 0.6 11 -11.7 40 40 WNW 8 13 30.19 1022 10 16 0.00 0.00
6:54 pm 18:54 Clear 32 0 12 -11.1 43 43 W 10 17 30.19 1022 10 16 0.00 0.00
7:54 pm 19:54 Clear 30 -1.1 13 -10.6 49 49 WNW 9 15 30.17 1022 10 16 0.00 0.00
8:54 pm 20:54 Clear 28 -2.2 13 -10.6 53 53 W 5 7 30.17 1022 10 16 0.00 0.00
9:54 pm 21:54 Clear 28 -2.2 13 -10.6 53 53 W 6 9 30.17 1022 10 16 0.00 0.00
10:54 pm 22:54 Clear 27 -2.8 13 -10.6 55 55 WSW 5 7 30.18 1022 10 16 0.00 0.00
11:54 pm 23:54 Clear 26 -3.3 13 -10.6 57 57 WSW 6 9 30.17 1022 10 16 0.00 0.00

Powered by AerisWeather